Location: 5810 Zion Rd, Cleves, OH 45002, USA
(39.1922°N, 84.7113°W)
Time: 10:11:48
(UTC-05:00)

Explorer 7 - All Passes

Search period start: 09 December 2019 00:00
Search period end: 19 December 2019 00:00
Orbit: 485 x 680 km, 50.3° (Epoch: 08 December)

Date Brightness Start Highest point End Pass type
(mag) Time Alt. Az. Time Alt. Az. Time Alt. Az.
09 Dec - 00:32:34 10° W 00:36:10 22° SW 00:39:37 10° S night (unlit)
09 Dec - 14:35:03 10° SE 14:35:39 10° SE 14:36:14 10° ESE daylight
09 Dec - 16:10:43 10° SW 16:15:28 63° SE 16:20:20 10° ENE daylight
09 Dec - 17:51:52 10° W 17:56:22 35° NNW 18:00:54 10° NE visible
09 Dec - 19:34:16 10° NW 19:38:04 22° N 19:41:50 10° NE visible
09 Dec - 21:15:33 10° NW 21:19:52 30° NNE 21:24:02 10° E visible
09 Dec - 22:56:07 10° NW 23:00:55 82° SW 23:05:27 10° SE night (unlit)
10 Dec - 00:38:38 10° W 00:40:50 13° SW 00:42:59 10° SSW night (unlit)
10 Dec - 14:37:08 10° S 14:40:16 18° SE 14:43:30 10° E daylight
10 Dec - 16:15:34 10° SW 16:20:23 86° NW 16:25:20 10° NE daylight
10 Dec - 17:57:18 10° WNW 18:01:33 29° NNW 18:05:49 10° NE visible
10 Dec - 19:39:33 10° NW 19:43:22 22° N 19:47:09 10° NE visible
10 Dec - 21:20:28 10° NW 21:25:02 38° NNE 21:29:26 10° E visible
10 Dec - 23:01:10 10° WNW 23:05:48 52° SW 23:10:12 10° SSE night (unlit)
11 Dec - 14:40:56 10° S 14:44:59 28° SE 14:49:09 10° ENE daylight
11 Dec - 16:20:37 10° WSW 16:25:23 59° NNW 16:30:16 10° NE daylight
11 Dec - 18:02:46 10° WNW 18:06:47 25° NNW 18:10:49 10° NE visible
11 Dec - 19:44:42 10° NW 19:48:40 24° N 19:52:33 10° ENE visible
11 Dec - 21:25:22 10° NW 21:30:08 52° NNE 21:34:43 10° ESE visible
11 Dec - 23:06:22 10° WNW 23:10:36 32° SW 23:14:38 10° SSE night (unlit)
12 Dec - 14:45:16 10° SSW 14:49:45 45° SE 14:54:25 10° ENE daylight
12 Dec - 16:25:52 10° W 16:30:27 42° NNW 16:35:09 10° NE daylight
12 Dec - 18:08:12 10° WNW 18:12:04 22° N 18:15:56 10° NE visible
12 Dec - 19:49:44 10° NW 19:53:55 27° NNE 19:58:00 10° ENE visible
12 Dec - 21:30:17 10° NW 21:35:10 76° NE 21:39:50 10° ESE visible
12 Dec - 23:11:54 10° W 23:15:18 20° SW 23:18:37 10° S night (unlit)
13 Dec - 13:12:59 10° SSE 13:14:45 12° SE 13:16:31 10° ESE daylight
13 Dec - 14:49:55 10° SW 14:54:37 72° SE 14:59:30 10° ENE daylight
13 Dec - 16:31:14 10° W 16:35:36 33° NNW 16:40:03 10° NE daylight
13 Dec - 18:13:33 10° NW 18:17:22 22° N 18:21:10 10° NE visible
13 Dec - 19:54:41 10° NW 19:59:07 33° NNE 20:03:28 10° E visible
13 Dec - 21:35:15 10° WNW 21:40:07 72° SW 21:44:45 10° SE visible
13 Dec - 23:18:20 10° WSW 23:19:57 12° SW 23:21:33 10° SW night (unlit)
14 Dec - 13:16:00 10° S 13:19:23 20° SE 13:22:53 10° E daylight
14 Dec - 14:54:50 10° WSW 14:59:34 76° NNW 15:04:28 10° NE daylight
14 Dec - 16:36:41 10° WNW 16:40:49 27° NNW 16:45:00 10° NE daylight
14 Dec - 18:18:47 10° NW 18:22:40 22° N 18:26:31 10° ENE visible
14 Dec - 19:59:35 10° NW 20:04:16 42° NNE 20:08:49 10° E visible
14 Dec - 21:40:20 10° WNW 21:44:58 45° SW 21:49:24 10° SSE night (unlit)
15 Dec - 13:20:00 10° SSW 13:24:06 32° SE 13:28:24 10° ENE daylight
15 Dec - 14:59:57 10° WSW 15:04:35 52° NNW 15:09:23 10° NE daylight
15 Dec - 16:42:08 10° WNW 16:46:04 24° N 16:50:02 10° NE daylight
15 Dec - 18:23:53 10° NW 18:27:56 25° NNE 18:31:57 10° ENE visible
15 Dec - 20:04:28 10° NW 20:09:21 59° NNE 20:14:04 10° ESE visible
15 Dec - 21:45:36 10° WNW 21:49:44 28° SW 21:53:43 10° S night (unlit)
16 Dec - 13:24:26 10° SSW 13:28:54 52° SE 13:33:36 10° ENE daylight
16 Dec - 15:05:14 10° W 15:09:41 38° NNW 15:14:16 10° NE daylight
16 Dec - 16:47:33 10° NW 16:51:21 22° N 16:55:11 10° NE daylight
16 Dec - 18:28:54 10° NW 18:33:10 29° NNE 18:37:25 10° ENE visible
16 Dec - 20:09:25 10° NW 20:14:21 86° NE 20:19:07 10° SE visible
16 Dec - 21:51:16 10° W 21:54:26 17° SW 21:57:30 10° S night (unlit)
17 Dec - 11:51:34 10° SSE 11:53:51 14° SE 11:56:11 10° E daylight
17 Dec - 13:29:11 10° SW 13:33:47 82° SE 13:38:38 10° NE daylight
17 Dec - 15:10:38 10° W 15:14:51 30° NNW 15:19:11 10° NE daylight
17 Dec - 16:52:52 10° NW 16:56:39 22° N 17:00:27 10° NE daylight
17 Dec - 18:33:49 10° NW 18:38:22 36° NNE 18:42:50 10° E visible
17 Dec - 20:14:24 10° WNW 20:19:15 63° SW 20:23:58 10° SE visible
18 Dec - 11:54:58 10° S 11:58:31 23° SE 12:02:12 10° ENE daylight
18 Dec - 13:34:10 10° WSW 13:38:45 67° NNW 13:43:35 10° NE daylight
18 Dec - 15:16:05 10° WNW 15:20:04 25° NNW 15:24:10 10° NE daylight
18 Dec - 16:58:02 10° NW 17:01:56 23° N 17:05:51 10° ENE daylight
18 Dec - 18:38:43 10° NW 18:43:29 47° NNE 18:48:10 10° ESE visible
18 Dec - 20:19:31 10° WNW 20:24:06 39° SW 20:28:31 10° SSE visible
